CW8896 Weather Reports


time (UTC)temp
C
wind
direction
speed
KPH
gust
KPH
rain 1hr
cm
rain 24hr
cm
rain mn
cm
humidity
%
barometer
mb
20260507212004 12 0 0.0 0.0 0.00 0.00 0.00 88 1012.0
20260507211004 13 0 0.0 0.0 0.00 0.00 0.00 87 1011.9
20260507210005 13 0 0.0 0.0 0.00 0.00 0.00 86 1012.0
20260507204004 13 0 0.0 0.0 0.00 0.00 0.00 84 1011.8
20260507202004 13 0 0.0 0.0 0.00 0.00 0.00 83 1011.8
20260507201005 13 0 0.0 0.0 0.00 0.00 0.00 83 1011.8
20260507200004 14 0 0.0 0.0 0.00 0.00 0.00 81 1011.6
20260507195004 14 0 0.0 0.0 0.00 0.00 0.00 80 1011.5
20260507194006 15 0 0.0 0.0 0.00 0.00 0.00 79 1011.3
20260507193005 15 171 0.0 1.6 0.00 0.00 0.00 77 1011.3
20260507192003 15 194 0.0 1.6 0.00 0.00 0.00 75 1011.2
20260507190005 16 0 0.0 0.0 0.00 0.00 0.00 73 1010.9
20260507185004 16 0 0.0 0.0 0.00 0.00 0.00 72 1010.9
20260507184003 17 165 0.0 1.6 0.00 0.00 0.00 70 1010.8
20260507183005 17 228 0.0 3.2 0.00 0.00 0.00 67 1010.9
20260507182004 17 193 0.0 3.2 0.00 0.00 0.00 67 1010.8
20260507181004 17 217 1.6 6.4 0.00 0.00 0.00 67 1010.7
20260507180005 17 204 1.6 6.4 0.00 0.00 0.00 67 1010.8
20260507174004 18 197 1.6 8.0 0.00 0.00 0.00 66 1010.6
20260507173004 18 192 1.6 9.7 0.00 0.00 0.00 65 1010.5
20260507172004 18 212 1.6 9.7 0.00 0.00 0.00 64 1010.5
20260507171004 18 191 1.6 6.4 0.00 0.00 0.00 64 1010.5
20260507170004 19 183 3.2 9.7 0.00 0.00 0.00 62 1010.5
20260507165004 20 176 1.6 9.7 0.00 0.00 0.00 61 1010.5
20260507164004 20 158 1.6 11.3 0.00 0.00 0.00 63 1010.5
20260507163005 20 193 1.6 9.7 0.00 0.00 0.00 62 1010.7
20260507162003 20 139 1.6 11.3 0.00 0.00 0.00 62 1010.5
20260507161004 20 188 1.6 8.0 0.00 0.00 0.00 58 1010.5
20260507155004 21 103 1.6 11.3 0.00 0.00 0.00 56 1010.4
20260507154004 21 148 1.6 9.7 0.00 0.00 0.00 55 1010.5
20260507153004 22 176 1.6 9.7 0.00 0.00 0.00 54 1010.4
20260507152003 22 156 1.6 8.0 0.00 0.00 0.00 55 1010.5
20260507150005 21 188 3.2 11.3 0.00 0.00 0.00 54 1010.6
20260507143004 21 128 1.6 8.0 0.00 0.00 0.00 54 1010.9
20260507142003 21 164 1.6 8.0 0.00 0.00 0.00 54 1010.8
20260507140004 21 179 3.2 12.9 0.00 0.00 0.00 55 1011.0
20260507134004 21 179 3.2 8.0 0.00 0.00 0.00 56 1011.4
20260507133004 21 163 3.2 9.7 0.00 0.00 0.00 56 1011.4
20260507131003 20 101 1.6 6.4 0.00 0.00 0.00 57 1011.6
20260507130005 21 155 1.6 9.7 0.00 0.00 0.00 57 1011.6
20260507125004 21 133 3.2 9.7 0.00 0.00 0.00 56 1011.5
20260507124003 21 173 3.2 9.7 0.00 0.00 0.00 58 1011.7
20260507122004 21 200 3.2 12.9 0.00 0.00 0.00 58 1011.8
20260507121003 21 192 3.2 9.7 0.00 0.00 0.00 60 1011.9
20260507115004 21 194 3.2 12.9 0.00 0.00 0.00 60 1011.8
20260507114003 21 172 3.2 9.7 0.00 0.00 0.00 59 1011.9
20260507113005 20 199 1.6 8.0 0.00 0.00 0.00 63 1012.0
20260507111004 20 114 1.6 4.8 0.00 0.00 0.00 58 1012.0
20260507110004 20 168 1.6 6.4 0.00 0.00 0.00 57 1012.2
20260507105005 19 216 1.6 9.7 0.00 0.00 0.00 58 1012.2
20260507103005 20 121 1.6 6.4 0.00 0.00 0.00 53 1012.2
20260507102003 19 70 1.6 6.4 0.00 0.00 0.00 54 1012.3
20260507101004 18 49 1.6 4.8 0.00 0.00 0.00 58 1012.5
20260507100004 19 29 1.6 8.0 0.00 0.00 0.00 58 1012.6
20260507095004 19 72 1.6 8.0 0.00 0.00 0.00 58 1012.5
20260507094004 20 72 3.2 11.3 0.00 0.00 0.00 57 1012.6
20260507090005 18 39 1.6 8.0 0.00 0.00 0.00 61 1012.5
20260507085003 17 62 3.2 12.9 0.00 0.00 0.00 63 1012.5
20260507084004 17 72 1.6 6.4 0.00 0.00 0.00 65 1012.3
20260507082004 17 60 1.6 8.0 0.00 0.00 0.00 65 1012.4
20260507081004 17 64 3.2 11.3 0.00 0.00 0.00 66 1012.4
20260507074004 16 77 1.6 6.4 0.00 0.00 0.00 67 1012.4
20260507073005 17 131 0.0 3.2 0.00 0.00 0.00 66 1012.4
20260507072004 16 72 0.0 3.2 0.00 0.00 0.00 69 1012.4
20260507071004 16 68 0.0 3.2 0.00 0.00 0.00 70 1012.3
20260507070009 15 56 1.6 4.8 0.00 0.00 0.00 71 1012.4
20260507065006 16 60 0.0 3.2 0.00 0.00 0.00 71 1012.4
20260507064004 15 58 0.0 3.2 0.00 0.00 0.00 74 1012.3
20260507063004 15 56 0.0 3.2 0.00 0.00 0.00 76 1012.3
20260507062004 13 346 0.0 1.6 0.00 0.00 0.00 79 1012.3
20260507061004 13 327 0.0 1.6 0.00 0.00 0.00 81 1012.3
20260507060004 12 26 0.0 1.6 0.00 0.00 0.00 82 1012.3
20260507054004 11 298 0.0 3.2 0.00 0.00 0.00 86 1012.1
20260507052004 10 0 0.0 0.0 0.00 0.00 0.00 90 1011.9
20260507050005 8 0 0.0 0.0 0.00 0.00 0.00 91 1011.9
20260507045004 8 0 0.0 0.0 0.00 0.00 0.00 91 1011.8
20260507044003 8 0 0.0 0.0 0.00 0.00 0.00 91 1011.7
20260507042004 9 0 0.0 0.0 0.00 0.00 0.00 90 1011.6
20260507040004 9 0 0.0 0.0 0.00 0.00 0.00 89 1011.7
20260507035004 10 0 0.0 0.0 0.00 0.00 0.00 88 1011.7
20260507034004 10 329 0.0 1.6 0.00 0.00 0.00 88 1011.5
20260507033004 10 329 0.0 1.6 0.00 0.00 0.00 88 1011.6
20260507032003 10 0 0.0 0.0 0.00 0.00 0.00 86 1011.6
20260507031004 11 0 0.0 0.0 0.00 0.00 0.00 85 1011.5
20260507030004 11 0 0.0 0.0 0.00 0.00 0.00 84 1011.6
20260507025004 11 312 0.0 3.2 0.00 0.00 0.00 83 1011.4
20260507024003 11 316 0.0 3.2 0.00 0.00 0.00 82 1011.4
20260507023005 11 329 0.0 1.6 0.00 0.00 0.00 82 1011.3
20260507022004 11 330 0.0 3.2 0.00 0.00 0.00 83 1011.4
20260507021004 11 0 0.0 0.0 0.00 0.00 0.00 83 1011.4
20260507020004 11 336 0.0 1.6 0.00 0.00 0.00 82 1011.4
20260507015004 12 311 0.0 1.6 0.00 0.00 0.00 81 1011.4
20260507014004 12 304 0.0 4.8 0.00 0.00 0.00 82 1011.5
20260507013004 12 311 0.0 3.2 0.00 0.00 0.00 82 1011.3
20260507012004 11 306 0.0 3.2 0.00 0.00 0.00 84 1011.4
20260507011003 11 354 0.0 1.6 0.00 0.00 0.00 84 1011.8
20260507005004 11 94 0.0 1.6 0.00 0.00 0.00 84 1011.6
20260507004005 11 321 0.0 3.2 0.00 0.00 0.00 83 1011.7
20260507003004 12 349 0.0 6.4 0.00 0.00 0.00 82 1011.8
20260507002004 12 312 0.0 6.4 0.00 0.00 0.00 81 1011.9
20260507001003 11 301 0.0 3.2 0.00 0.00 0.00 82 1011.8
20260507000004 12 289 0.0 3.2 0.00 0.00 0.00 82 1012.0
20260506235003 12 307 0.0 1.6 0.00 0.00 0.00 82 1012.1
20260506234004 12 335 0.0 1.6 0.00 0.00 0.00 81 1012.1
20260506233005 12 310 0.0 4.8 0.00 0.00 0.00 80 1012.1
20260506232003 12 319 0.0 6.4 0.00 0.00 0.00 80 1012.1
20260506231004 12 311 0.0 8.0 0.00 0.00 0.00 79 1012.2
20260506230004 12 306 0.0 4.8 0.00 0.00 0.00 79 1012.0
20260506225004 12 324 0.0 4.8 0.00 0.03 0.00 78 1011.9
20260506224004 12 315 0.0 4.8 0.00 0.03 0.00 78 1011.8
20260506223004 13 308 1.6 6.4 0.00 0.05 0.00 77 1011.8
20260506222004 13 306 1.6 6.4 0.00 0.08 0.00 76 1011.7
20260506221004 13 312 0.0 6.4 0.00 0.15 0.00 76 1011.7
20260506220008 13 310 0.0 4.8 0.00 0.25 0.00 76 1011.6
20260506215003 13 261 0.0 1.6 0.00 0.33 0.25 77 1011.5